Location: Foligno
(42.9600°N, 12.7050°E)
Time: 21:15:11
(UTC+01:00)

ISS - Pass Details

Date: 14 January 2018
Orbit: 402 x 407 km, 51.6° (Epoch: 17 January)

Event Time Altitude Azimuth Distance (km) Brightness Sun altitude
Exits shadow 04:44:05 11° 82° (E) 1,397 -0.3 -31.3°
Drops below altitude 10° 04:44:16 10° 83° (E) 1,463 -0.1 -31.3°
Sets 04:46:31 0° 95° (E) 2,322 1.2 -30.9°
